Location: Aiyekoto
(8.4333°N, 4.3667°E)
Time: 23:46:30
(UTC+00:00)

Centaur D-1A AC-31 - Visible Passes

Search period start: 01 October 2020 00:00
Search period end: 11 October 2020 00:00
Orbit: 575 x 36366 km, 27.2° (Epoch: 30 September)

Date Brightness Start Highest point End Pass type
(mag) Time Alt. Az. Time Alt. Az. Time Alt. Az.
02 Oct 8.7 13:35:19 10° W 14:48:59 22° W 17:18:57 10° WNW visible
02 Oct 5.8 22:58:03 10° W 23:00:36 13° W 23:00:36 13° W visible
03 Oct 4.1 10:39:07 10° WSW 12:16:55 61° W 20:40:10 86° SW visible
04 Oct 5.1 08:06:47 10° SW 17:58:16 66° N 18:19:46 14° E visible
07 Oct 8.1 12:26:15 10° WSW 13:53:12 32° W 17:47:48 10° WNW visible
07 Oct 5.2 21:50:44 10° WNW 22:08:21 27° W 22:08:21 27° W visible
08 Oct 4.0 09:41:34 10° WSW 11:17:55 72° W 19:47:56 56° ESE visible
10 Oct 5.5 04:46:35 10° S 05:03:25 25° SE 14:50:06 10° ENE visible
